Zurück zum Katalog

THORAD AGENA D DEB

AktivLEO
NORAD 21721·DEBRIS·🇺🇸 United States

Gestartet Apr 8, 1970 von Vandenberg Space Force Base

Loading…

Nächste Überflüge (nächste 24 Stunden)

TLE

AktuellSource: Space-Track

Epoche: Sep 13, 2026, 08:11 UTC

1 21721U 70025QG  26256.34101500  .00000790  00000-0  93363-3 0  9995
2 21721 100.1154 212.4678 0006764  44.5610 110.2926 13.71392738736281

Verfolge THORAD AGENA D DEB in Echtzeit mit AllMySat

Download on the App Store